Notices

Please take our survey and provide feedback: https://eccc.sondage-survey.ca/f/LanguageSelection.aspx?s=442ca660-fcf1-47c0-95a9-59707d6fd709

Please note that for the Engineering Climate Datasets, IDF dataset is available through this link.  Intensity-Duration-Frequency (IDF) Files: Includes the latest version of short-duration rainfall Intensity-Duration-Frequency (IDF) statistics in the form of tables and graphs with accompanying documentation for various locations across Canada.  Current IDF files can be accessed through our station finder application or downloaded for each province and territory across Canada.  In addition, historical versions of IDF files are also available for download.  Updates of IDF files are provided approximately every two years depending on the availability of data.   Thank you for your patience as we enhance our systems.

Hourly Data Report for December 29, 2004

SHERBROOKE A
QUEBEC

45°26'00.000" N
71°41'00.000" W
241.40 m
7028124
71610
YSC

Download Data

Hourly Data (December 2004)
Hourly Data Report for December 29, 2004
TIME
LST
Temp Definition
°C
Dew Point Definition
°C
Rel Hum Definition
%
Precip. Amount Definition
mm

Wind Dir Definition
10's deg

Wind Spd Definition
km/h
Visibility Definition
km
Stn Press Definition
kPa
Hmdx Definition


Wind Chill Definition


Weather Definition


00:00 -5.2 -9.9 70   21 13 15.0 98.43   -10  
01:00 -5.1 -9.6 71   21 15 15.0 98.35   -11 Snow
02:00 -5.0 -8.8 75   21 9 12.9 98.36   -9 Snow
03:00 -4.7 -8.5 75   22 13 15.0 98.36   -10 Snow
04:00 -4.1 -8.5 71   22 13 15.0 98.31   -9 Snow
05:00 -4.0 -7.5 77   24 9 15.0 98.32   -8 Snow
06:00 -3.9 -6.3 83   24 11 6.4 98.33   -8 Snow
07:00 -3.2 -5.1 87   26 15 8.0 98.40   -8 Snow
08:00 -3.2 -4.8 89   26 15 6.4 98.50   -8 Snow
09:00 -2.8 -4.6 87   26 15 4.0 98.56   -8 Snow
10:00 -2.4 -4.2 87   27 15 3.6 98.64   -7 Snow
11:00 -2.1 -4.5 84   28 17 6.4 98.69   -7 Snow
12:00 -1.9 -4.6 82   29 17 4.8 98.72   -7 Snow
13:00 -1.7 -5.1 78   28 22 9.7 98.74   -8 Snow
14:00 -1.9 -5.9 74   29 20 6.4 98.80   -8 Snow
15:00 -3.0 -6.4 77   32 7 4.8 98.93   -6 Snow
16:00 -4.3 -8.0 75   31 7 16.1 99.07   -7 Mostly Cloudy
17:00 -5.6 -8.7 79   33 6 19.3 99.17   -8 Mostly Cloudy
18:00 -10.4 -11.9 89   16 4 15.0 99.29   -13  
19:00 -11.4 -13.2 86   35 6 15.0 99.39   -15  
20:00 -12.5 -14.1 88   12 7 9.7 99.47   -17  
21:00 -13.5 -15.3 86   2 4 8.0 99.51   -16  
22:00 -14.4 -16.3 85     0 12.9 99.60      
23:00 -16.3 -18.2 85     0 15.0 99.60      

Notes on Data Quality.

Legend

  • E = Estimated
  • M = Missing
  • NA = Not Available*
  • [empty] = Indicates an unobserved value
Date modified: